Location: Unspecified
(35.7250°N, 0.0000°E)
Time: 04:39:09
(UTC+00:00)

Tiros 1 - Pass Details

Date: 30 June 2019
Orbit: 630 x 664 km, 48.4° (Epoch: 13 October)

Event Time Altitude Azimuth Distance (km) Brightness Sun altitude
Rises 01:10:06 0° 310° (NW) 2,944 10.8 -29.0°
Reaches altitude 10° 01:12:41 10° 321° (NW) 2,027 10.0 -28.9°
Maximum altitude 01:16:49 31° 24° (NNE) 1,121 8.9 -28.6°
Drops below altitude 10° 01:20:56 10° 86° (E) 2,008 9.9 -28.3°
Sets 01:23:28 0° 97° (E) 2,911 10.7 -28.1°
